When you browse on this site, cookies collect data to enhance your experience and personalize the content and advertising you see.
Visit our Privacy Policy to learn more. By continuing to use the site, you agree to this use of cookies and data.
  • Em Portugal
  • Lista de países
  • Para 7 dias
  • Temperatura da água
  • Mapas de satélite
  • Mapa do tempo
  • Widgets de tempo
  • user-avatar
    Iniciar Sessão

    Previsão horária em Baryczka

    Hoje, 21 Fevereiro, Quinta-feira

    Tempo Temperatura Precipitação Vento Pressão Humidade
    00:00 +3°C° 0 mm 4 m/s 745 mmHg 82%
    01:00 +3°C° 0 mm 3 m/s 745 mmHg 84%
    02:00 +2°C° 0 mm 3 m/s 745 mmHg 84%
    03:00 +2°C° 0 mm 3 m/s 745 mmHg 84%
    04:00 +1°C° 0 mm 4 m/s 745 mmHg 84%
    05:00 +1°C° 0 mm 4 m/s 745 mmHg 83%
    06:00 +1°C° 0 mm 4 m/s 745 mmHg 82%
    07:00 +1°C° 0 mm 4 m/s 745 mmHg 81%
    08:00 +2°C° 0 mm 5 m/s 745 mmHg 79%
    09:00 +3°C° 0 mm 5 m/s 745 mmHg 76%
    10:00 +4°C° 0 mm 6 m/s 745 mmHg 74%
    11:00 +5°C° 0 mm 6 m/s 745 mmHg 70%
    12:00 +5°C° 0 mm 6 m/s 745 mmHg 67%
    13:00 +7°C° 0 mm 6 m/s 745 mmHg 64%
    14:00 +7°C° 0.1 mm 6 m/s 744 mmHg 67%
    15:00 +7°C° 0.1 mm 5 m/s 744 mmHg 69%
    16:00 +6°C° 0.1 mm 4 m/s 743 mmHg 72%
    17:00 +6°C° 0.6 mm 4 m/s 743 mmHg 76%
    18:00 +5°C° 0.6 mm 4 m/s 743 mmHg 80%
    19:00 +5°C° 0.6 mm 4 m/s 743 mmHg 84%
    20:00 +5°C° 0.8 mm 4 m/s 743 mmHg 86%
    21:00 +3°C° 0.8 mm 5 m/s 742 mmHg 87%
    22:00 +3°C° 0.8 mm 5 m/s 742 mmHg 88%
    23:00 +3°C° 0.9 mm 5 m/s 742 mmHg 89%

    Amanhã, 22 Fevereiro, Sexta-feira

    Tempo Temperatura Precipitação Vento Pressão Humidade
    00:00 +3°C° 0.9 mm 5 m/s 742 mmHg 90%
    01:00 +4°C° 0.9 mm 4 m/s 742 mmHg 91%
    02:00 +4°C° 1.1 mm 4 m/s 742 mmHg 92%
    03:00 +4°C° 1.1 mm 4 m/s 742 mmHg 93%
    04:00 +4°C° 1.1 mm 4 m/s 742 mmHg 95%
    05:00 +1°C° 1.1 mm 5 m/s 742 mmHg 93%
    06:00 -3°C° 1.1 mm 7 m/s 743 mmHg 91%
    07:00 -6°C° 1.1 mm 8 m/s 744 mmHg 90%
    08:00 -6°C° 0.2 mm 8 m/s 745 mmHg 83%
    09:00 -6°C° 0.2 mm 7 m/s 747 mmHg 77%
    10:00 -6°C° 0.2 mm 7 m/s 748 mmHg 70%
    11:00 -6°C° 0 mm 7 m/s 749 mmHg 66%
    12:00 -6°C° 0 mm 7 m/s 750 mmHg 62%
    13:00 -6°C° 0 mm 7 m/s 750 mmHg 58%
    14:00 -6°C° 0 mm 7 m/s 751 mmHg 58%
    15:00 -6°C° 0 mm 7 m/s 751 mmHg 59%
    16:00 -7°C° 0 mm 7 m/s 752 mmHg 59%
    17:00 -6°C° 0 mm 6 m/s 753 mmHg 60%
    18:00 -7°C° 0 mm 5 m/s 753 mmHg 60%
    19:00 -7°C° 0 mm 5 m/s 754 mmHg 61%
    20:00 -7°C° 0 mm 5 m/s 755 mmHg 60%
    21:00 -7°C° 0 mm 5 m/s 755 mmHg 59%
    22:00 -7°C° 0 mm 4 m/s 756 mmHg 57%
    23:00 -7°C° 0 mm 4 m/s 756 mmHg 57%

    Depois de amanhã, 23 Fevereiro, Sábado

    Tempo Temperatura Precipitação Vento Pressão Humidade
    00:00 -7°C° 0 mm 4 m/s 756 mmHg 57%
    01:00 -7°C° 0 mm 4 m/s 757 mmHg 56%
    02:00 -8°C° 0 mm 4 m/s 757 mmHg 57%
    03:00 -8°C° 0 mm 4 m/s 757 mmHg 57%
    04:00 -8°C° 0 mm 5 m/s 757 mmHg 58%
    05:00 -8°C° 0 mm 4 m/s 757 mmHg 59%
    06:00 -8°C° 0 mm 4 m/s 757 mmHg 61%
    07:00 -8°C° 0 mm 4 m/s 758 mmHg 62%
    08:00 -7°C° 0 mm 4 m/s 758 mmHg 59%
    09:00 -7°C° 0 mm 4 m/s 758 mmHg 56%
    10:00 -6°C° 0 mm 5 m/s 758 mmHg 52%
    11:00 -6°C° 0 mm 5 m/s 758 mmHg 50%
    12:00 -4°C° 0 mm 4 m/s 758 mmHg 47%
    13:00 -4°C° 0 mm 4 m/s 758 mmHg 44%
    14:00 -4°C° 0 mm 4 m/s 758 mmHg 45%
    15:00 -4°C° 0 mm 4 m/s 758 mmHg 46%
    16:00 -4°C° 0 mm 4 m/s 757 mmHg 46%
    17:00 -4°C° 0 mm 3 m/s 758 mmHg 50%
    18:00 -4°C° 0 mm 2 m/s 758 mmHg 55%
    19:00 -5°C° 0 mm 2 m/s 758 mmHg 59%
    20:00 -3°C° 0 mm 1 m/s 758 mmHg 60%
    21:00 -3°C° 0 mm 1 m/s 758 mmHg 60%
    22:00 -3°C° 0 mm 1 m/s 758 mmHg 61%
    23:00 -3°C° 0 mm 1 m/s 758 mmHg 61%

    24 Fevereiro, Domingo

    Tempo Temperatura Precipitação Vento Pressão Humidade
    00:00 -3°C° 0 mm 1 m/s 758 mmHg 61%
    01:00 -3°C° 0 mm 1 m/s 758 mmHg 62%
    02:00 -3°C° 0 mm 1 m/s 757 mmHg 61%
    03:00 -3°C° 0 mm 1 m/s 757 mmHg 60%
    04:00 -3°C° 0 mm 1 m/s 757 mmHg 59%
    05:00 -3°C° 0 mm 1 m/s 757 mmHg 58%
    06:00 -3°C° 0 mm 1 m/s 757 mmHg 57%
    07:00 -3°C° 0 mm 1 m/s 757 mmHg 55%
    08:00 -2°C° 0 mm 1 m/s 756 mmHg 49%
    09:00 0°C° 0 mm 1 m/s 756 mmHg 43%
    10:00 +1°C° 0 mm 1 m/s 756 mmHg 36%
    11:00 -1°C° 0 mm 2 m/s 756 mmHg 36%
    12:00 +1°C° 0 mm 2 m/s 756 mmHg 35%
    13:00 +2°C° 0 mm 2 m/s 756 mmHg 35%
    14:00 +1°C° 0 mm 2 m/s 755 mmHg 40%
    15:00 +1°C° 0 mm 2 m/s 755 mmHg 46%
    16:00 +1°C° 0 mm 2 m/s 755 mmHg 51%
    17:00 -1°C° 0 mm 2 m/s 755 mmHg 57%
    18:00 0°C° 0 mm 1 m/s 755 mmHg 62%
    19:00 0°C° 0 mm 1 m/s 755 mmHg 68%
    20:00 0°C° 0 mm 1 m/s 755 mmHg 69%
    21:00 0°C° 0 mm 1 m/s 756 mmHg 70%
    22:00 0°C° 0 mm 1 m/s 756 mmHg 71%
    23:00 -2°C° 0 mm 2 m/s 756 mmHg 71%

    25 Fevereiro, Segunda-feira

    Tempo Temperatura Precipitação Vento Pressão Humidade
    00:00 -2°C° 0 mm 2 m/s 756 mmHg 71%
    01:00 -2°C° 0 mm 2 m/s 756 mmHg 70%
    02:00 -2°C° 0 mm 2 m/s 756 mmHg 70%
    03:00 -2°C° 0 mm 2 m/s 755 mmHg 69%
    04:00 -2°C° 0 mm 3 m/s 755 mmHg 68%
    05:00 -2°C° 0 mm 3 m/s 755 mmHg 68%
    06:00 -2°C° 0 mm 3 m/s 755 mmHg 67%
    07:00 -1°C° 0 mm 3 m/s 755 mmHg 66%
    08:00 -1°C° 0 mm 4 m/s 755 mmHg 63%
    09:00 0°C° 0 mm 4 m/s 755 mmHg 61%
    10:00 +2°C° 0 mm 5 m/s 755 mmHg 58%
    11:00 +2°C° 0 mm 5 m/s 755 mmHg 59%
    12:00 +3°C° 0 mm 5 m/s 755 mmHg 60%
    13:00 +5°C° 0 mm 5 m/s 754 mmHg 61%
    14:00 +4°C° 0 mm 4 m/s 754 mmHg 66%
    15:00 +4°C° 0 mm 4 m/s 754 mmHg 72%
    16:00 +3°C° 0 mm 3 m/s 754 mmHg 77%
    17:00 +2°C° 0 mm 3 m/s 754 mmHg 82%
    18:00 +3°C° 0 mm 2 m/s 754 mmHg 86%
    19:00 +2°C° 0 mm 2 m/s 754 mmHg 90%
    20:00 +2°C° 0 mm 2 m/s 753 mmHg 91%
    21:00 +2°C° 0 mm 2 m/s 753 mmHg 92%
    22:00 +1°C° 0 mm 2 m/s 753 mmHg 93%
    23:00 +1°C° 0 mm 2 m/s 753 mmHg 94%

    26 Fevereiro, Terça-feira

    Tempo Temperatura Precipitação Vento Pressão Humidade
    00:00 0°C° 0 mm 3 m/s 752 mmHg 94%
    01:00 0°C° 0 mm 3 m/s 752 mmHg 95%
    02:00 0°C° 0 mm 3 m/s 751 mmHg 94%
    03:00 -1°C° 0 mm 4 m/s 751 mmHg 94%
    04:00 -1°C° 0 mm 4 m/s 750 mmHg 94%
    05:00 -1°C° 0 mm 4 m/s 750 mmHg 93%
    06:00 -1°C° 0 mm 5 m/s 749 mmHg 92%
    07:00 -1°C° 0 mm 5 m/s 749 mmHg 91%
    08:00 0°C° 0 mm 5 m/s 748 mmHg 87%
    09:00 +2°C° 0 mm 6 m/s 748 mmHg 82%
    10:00 +3°C° 0 mm 6 m/s 748 mmHg 77%
    11:00 +4°C° 0 mm 6 m/s 747 mmHg 73%
    12:00 +5°C° 0 mm 6 m/s 747 mmHg 69%
    13:00 +7°C° 0 mm 6 m/s 746 mmHg 66%
    14:00 +7°C° 0 mm 6 m/s 746 mmHg 67%
    15:00 +6°C° 0 mm 5 m/s 745 mmHg 68%
    16:00 +6°C° 0 mm 4 m/s 745 mmHg 70%
    17:00 +5°C° 0 mm 4 m/s 745 mmHg 75%
    18:00 +4°C° 0 mm 4 m/s 745 mmHg 80%
    19:00 +3°C° 0 mm 4 m/s 745 mmHg 85%
    20:00 +3°C° 0 mm 4 m/s 745 mmHg 87%
    21:00 +3°C° 0 mm 4 m/s 744 mmHg 89%
    22:00 +2°C° 0 mm 5 m/s 744 mmHg 92%
    23:00 +2°C° 0 mm 5 m/s 744 mmHg 92%
    Mostrar mais